Location: Darlington Observatory
(36.4817°N, 105.8156°W)
Time: 21:44:43
(UTC-06:00)

NOSS 3-3 (A) - Visible Passes

Search period start: 31 July 2014 00:00
Search period end: 10 August 2014 00:00
Orbit: 980 x 1233 km, 63.4° (Epoch: 22 June)

Date Brightness Start Highest point End Pass type
(mag) Time Alt. Az. Time Alt. Az. Time Alt. Az.
31 Jul 6.4 03:06:01 10° ESE 03:06:53 10° ESE 03:07:45 10° E visible
31 Jul 4.1 04:51:14 15° SSW 04:56:37 81° ESE 05:03:21 10° NE visible
01 Aug 4.7 04:08:25 23° S 04:12:09 49° ESE 04:18:30 10° NE visible
02 Aug 5.4 03:25:33 23° SE 03:27:49 28° ESE 03:33:18 10° NE visible
02 Aug 4.6 05:13:01 14° WSW 05:18:22 48° NW 05:24:53 10° NNE visible
03 Aug 6.0 02:42:38 15° ESE 02:43:36 16° ESE 02:47:20 10° ENE visible
03 Aug 4.1 04:30:06 29° SW 04:33:38 76° WNW 04:40:23 10° NNE visible
04 Aug 4.2 03:47:08 45° S 03:49:04 67° ESE 03:55:42 10° NE visible
04 Aug 5.5 05:35:25 10° W 05:40:35 24° NW 05:45:58 10° N visible
05 Aug 4.8 03:04:07 39° SE 03:04:39 40° ESE 03:10:45 10° NE visible
05 Aug 4.9 04:51:35 19° WSW 04:55:33 36° NW 05:01:45 10° NNE visible
06 Aug 5.7 02:21:04 23° E 02:21:04 23° E 02:25:20 10° ENE visible
06 Aug 4.3 04:08:31 39° WSW 04:10:43 57° NW 04:17:21 10° NNE visible
07 Aug 6.4 01:37:59 11° E 01:37:59 11° E 01:38:41 10° E visible
07 Aug 3.9 03:25:26 75° SSW 03:26:03 90° ESE 03:32:48 10° NNE visible
07 Aug 5.8 05:13:25 10° W 05:17:57 19° NW 05:22:39 10° N visible
08 Aug 4.5 02:42:18 52° E 02:42:18 52° E 02:48:01 10° NE visible
08 Aug 5.3 04:29:45 20° W 04:32:49 28° NW 04:38:33 10° NNE visible
09 Aug 5.5 01:59:08 27° E 01:59:08 27° E 02:02:56 10° NE visible
09 Aug 4.7 03:46:35 39° WNW 03:47:51 43° NW 03:54:16 10° NNE visible
09 Aug 6.3 05:39:30 10° NW 05:40:51 11° NNW 05:42:12 10° NNW visible
